Garrison, ND

5:56 AM CST on February 11, 2016 (GMT -0600)
Garrison

Weather History for KN60 - August, 2013

Change the Weather History Date:

Monday, August 12, 2013

  Actual Average Record
Temperature  
Mean Temperature 63 °F -  
Max Temperature 78 °F 80 °F 96 °F (2003)
Min Temperature 47 °F 53 °F 39 °F (2004)
Degree Days  
Heating Degree Days 2    
Growing Degree Days 12 (Base 50)    
Moisture  
Dew Point 50 °F    
Average Humidity 65    
Maximum Humidity 93    
Minimum Humidity 36    
Precipitation  
Precipitation 0.00 in - - ()
Month to date precipitation 0.48  
Year to date precipitation 19.33  
Sea Level Pressure  
Sea Level Pressure 30.14 in    
Wind  
Wind Speed 3 mph (ENE)    
Max Wind Speed 9 mph    
Max Gust Speed 13 mph    
Averages and records for this station are not official NWS values.
T = Trace of Precipitation, MM = Missing Value Source: NWS Daily Summary

Daily Weather History Graph

Daily Weather History Graph

Search for Another Location

Airport or City:

Trip Planner

Search our weather history database for the weather conditions in past years. The results will help you decide how hot, cold, wet, or windy it might be!

Date:

Astronomy

Aug. 12, 2013 Rise Set
Actual Time 6:37 AM CDT 9:02 PM CDT
Civil Twilight 6:03 AM CDT 9:36 PM CDT
Nautical Twilight 5:20 AM CDT 10:19 PM CDT
Astronomical Twilight 4:30 AM CDT 11:08 PM CDT
Moon 1:01 PM CDT (8/12) 11:25 PM CDT (8/12)
Length of Visible Light 15h 33m
Length of Day
14h 24m
Waxing Crescent, 31% of the Moon is Illuminated
Aug 12
Waxing Crescent
Aug 14
First Quarter
Aug 20
Full
Aug 28
Last Quarter
Sep 5
New

Hourly Weather History & Observations

Time (CDT) Temp. Dew Point Humidity Pressure Visibility Wind Dir Wind Speed Gust Speed Precip Events Conditions
12:52 AM 55.0 °F 50.0 °F 83% 30.12 in - Calm Calm - N/A   Unknown
1:52 AM 51.1 °F 48.0 °F 89% 30.14 in - Calm Calm - N/A   Unknown
2:52 AM 50.0 °F 48.0 °F 93% 30.13 in - North 4.6 mph - N/A   Unknown
3:52 AM 48.9 °F 46.9 °F 93% 30.13 in - North 3.5 mph - N/A   Unknown
4:52 AM 51.1 °F 48.0 °F 89% 30.13 in - NNE 3.5 mph - N/A   Unknown
5:52 AM 48.9 °F 46.9 °F 93% 30.14 in - Calm Calm - N/A   Unknown
6:52 AM 48.0 °F 46.0 °F 93% 30.14 in - North 5.8 mph - N/A   Unknown
7:52 AM 53.1 °F 51.1 °F 93% 30.14 in - NNE 3.5 mph - N/A   Unknown
8:52 AM 60.1 °F 55.0 °F 83% 30.16 in - Calm Calm - N/A   Unknown
9:52 AM 66.0 °F 54.0 °F 65% 30.16 in - Calm Calm - N/A   Unknown
10:52 AM 70.0 °F 51.1 °F 51% 30.16 in - ESE 3.5 mph - N/A   Unknown
11:52 AM 73.0 °F 48.0 °F 41% 30.16 in - SE 5.8 mph - N/A   Unknown
12:52 PM 73.9 °F 48.0 °F 40% 30.17 in - East 3.5 mph - N/A   Unknown
1:52 PM 75.0 °F 48.9 °F 40% 30.17 in - SE 6.9 mph - N/A   Unknown
2:52 PM 75.0 °F 48.0 °F 38% 30.16 in - Calm Calm - N/A   Unknown
3:52 PM 77.0 °F 48.9 °F 37% 30.15 in - ESE 4.6 mph - N/A   Unknown
4:52 PM 77.0 °F 48.9 °F 37% 30.14 in - Calm Calm - N/A   Unknown
5:52 PM 77.0 °F 50.0 °F 39% 30.13 in - Variable 6.9 mph - N/A   Unknown
6:52 PM 75.0 °F 48.9 °F 40% 30.13 in - ENE 6.9 mph - N/A   Unknown
7:52 PM 73.9 °F 48.9 °F 41% 30.12 in - ENE 3.5 mph - N/A   Unknown
8:52 PM 70.0 °F 51.1 °F 51% 30.12 in - ENE 3.5 mph - N/A   Unknown
9:52 PM 62.1 °F 53.1 °F 72% 30.14 in - NE 4.6 mph - N/A   Unknown
10:52 PM 62.1 °F 53.1 °F 72% 30.15 in - East 4.6 mph - N/A   Unknown
11:52 PM 60.1 °F 55.0 °F 83% 30.17 in - East 6.9 mph - N/A   Unknown